Dewpoint
4 7 9 8 9 6 4 6 7 4 2 3 4 4 1 1 -0 -1 -1 0 1 2 1 1 1 1 0 -1 -2 -1 1 2 3 6 7 8 8 9 8 8 6 4 1 -2
5 8 6 8 7 7 5 6 6 3 2 2 4 5 3 1 -1 -1 -1 0 1 2 2 1 -0 -1 -2 -3 -4 -4 -3 -1 2 5 7 8 8 7 6 2 -1 -1 -2 -3
6 6 6 9 8 8 6 6 5 5 4 3 3 5 3 -2 -3 -3 -2 1 1 2 2 2 -0 -1 -2 -3 -3 -3 -3 -3 -1 1 4 4 3 1 -0 -0 -2 -4 -5 -4
3 4 8 8 8 7 7 5 5 6 8 9 3 7 3 -0 -1 -1 0 1 1 2 2 2 2 -0 -2 -2 -2 -2 -2 -2 -2 -1 -1 -1 -1 -1 -3 -5 -5 -4 -3 -3
5 7 8 10 8 6 6 5 6 7 8 7 6 5 3 -1 -1 -1 1 1 2 2 2 3 1 -1 -1 -2 -2 -2 -2 -2 -2 -2 -3 -4 -4 -5 -5 -4 -3 -2 -2 -4
2 7 7 6 6 6 4 5 5 4 6 9 5 5 3 -1 -2 -2 1 1 2 3 3 3 0 -0 -1 -1 -1 -1 -1 -2 -3 -3 -4 -5 -5 -4 -3 -1 -1 -3 -5 -7
4 5 9 6 9 5 6 8 12 12 10 9 1 3 2 -1 -3 -2 0 1 2 3 3 3 1 1 0 0 0 -0 -1 -1 -2 -4 -5 -4 -3 -2 -1 -2 -3 -4 -6 -8
7 10 10 7 7 8 7 7 7 9 9 6 2 4 -0 -3 -2 -3 -1 1 2 3 3 3 3 1 1 1 1 0 -0 -2 -3 -4 -4 -3 -2 -1 -2 -2 -4 -6 -10 -19
7 8 7 7 5 5 8 9 3 4 4 5 3 3 0 -2 -1 -2 -2 1 2 3 3 3 3 2 2 1 1 1 -0 -2 -3 -4 -4 -2 -1 -1 -1 -4 -6 -10 -19 -30
4 9 6 5 6 4 7 5 8 5 7 7 4 3 2 -1 -1 -1 -1 1 2 3 3 3 3 2 2 2 1 1 -1 -2 -4 -4 -3 -1 -1 -2 -4 -7 -10 -17 -27 -32
4 5 5 5 7 8 7 9 7 4 3 5 4 3 -2 -1 -2 -1 -2 -0 2 3 3 3 3 2 2 2 1 0 -1 -3 -4 -4 -2 -1 -2 -4 -6 -10 -14 -20 -25 -29
4 2 8 5 1 2 4 5 5 7 5 3 3 2 -3 -3 -2 -2 -1 -0 2 2 3 2 3 2 2 1 1 -0 -1 -3 -4 -3 -1 -2 -4 -6 -9 -12 -14 -23 -28 -29
2 3 6 7 4 1 5 4 5 3 1 3 5 3 -3 -1 -0 -0 -1 0 1 2 3 2 3 2 2 1 1 -0 -2 -4 -4 -2 -2 -3 -5 -6 -8 -14 -22 -27 -28 -28
1 3 2 5 4 3 5 3 4 5 6 4 2 1 -1 -1 0 -0 -0 -0 1 2 2 2 3 1 1 1 0 -1 -3 -4 -3 -2 -2 -5 -7 -8 -13 -21 -27 -28 -28 -27
4 4 3 2 2 2 3 4 2 3 3 4 2 1 -0 -2 -0 -0 -0 -0 0 1 2 2 3 1 1 0 -0 -1 -4 -4 -2 -1 -3 -7 -7 -11 -18 -26 -27 -28 -27 -22
3 5 1 2 2 2 2 2 3 3 3 2 1 1 -2 -3 -2 -2 -1 -1 -0 1 2 2 2 1 0 -0 -0 -2 -4 -3 -2 -2 -5 -6 -10 -16 -25 -27 -28 -26 -21 -19
4 3 3 4 0 1 4 2 2 1 0 0 2 0 -2 -1 -2 -1 -0 0 1 1 1 2 2 1 1 1 -0 -3 -3 -2 -1 -3 -6 -9 -14 -23 -27 -28 -26 -21 -19 -17
4 3 2 4 0 6 1 -1 -0 1 -0 -1 -1 -1 -2 -1 -0 0 0 0 0 -0 0 1 2 2 2 1 -1 -3 -3 -1 -2 -5 -8 -12 -23 -26 -27 -26 -22 -19 -18 -17
2 6 7 4 7 1 -1 -0 -1 1 2 -1 -1 -2 -0 -0 -0 0 0 -0 -0 -0 -0 0 1 2 2 1 -2 -3 -2 -2 -4 -7 -11 -22 -26 -27 -25 -22 -20 -18 -17 -16
2 6 8 5 4 4 -0 -1 -2 -2 -1 -2 -2 -0 -0 -1 1 0 -0 -1 -1 -1 -1 -0 1 2 1 -1 -3 -3 -2 -3 -8 -10 -19 -25 -26 -25 -23 -21 -19 -17 -16 -16
4 3 8 5 7 1 -1 -1 -0 1 1 0 -0 -0 -0 -0 -0 0 -2 -3 -2 -2 -1 -0 1 1 -1 -2 -3 -2 -3 -6 -11 -16 -23 -25 -24 -23 -22 -19 -17 -17 -16 -16
5 3 3 5 8 8 -0 -0 1 1 1 0 0 0 -0 -1 -2 -2 -3 -3 -3 -2 -1 -1 -0 -1 -2 -3 -2 -3 -6 -11 -15 -22 -24 -24 -23 -23 -18 -17 -17 -18 -16 -16
2 1 2 1 2 1 0 1 -0 1 0 -0 -0 -1 -2 -2 -2 -2 -2 -3 -3 -3 -2 -1 -1 -1 -2 -2 -2 -5 -10 -15 -20 -23 -23 -23 -23 -18 -16 -17 -18 -17 -16 -16
0 0 1 1 1 0 0 -0 -0 -0 -1 -1 -2 -2 -2 -2 -2 -2 -2 -2 -3 -3 -2 -1 -0 -1 -2 -2 -4 -9 -12 -20 -22 -22 -23 -23 -17 -16 -17 -17 -16 -18 -16 -15
1 1 1 2 1 -0 -0 -0 -1 -1 -1 -2 -1 -2 -1 -1 -1 -1 -1 -1 -1 -2 -1 -1 -1 -2 -3 -4 -10 -12 -19 -22 -22 -23 -23 -17 -16 -16 -17 -17 -17 -15 -14 -14
0 1 2 2 0 0 -0 -0 -1 -1 -1 -1 -1 -1 -2 -3 -4 -4 -3 -2 -1 -1 -1 -1 -1 -2 -4 -9 -11 -19 -21 -22 -23 -23 -17 -16 -16 -17 -18 -17 -16 -14 -12 -11
Wind_Speed
24 12 19 28 17 16 18 18 14 13 7 6 13 16 14 19 11 11 9 10 10 9 10 13 15 16 15 16 16 17 16 15 11 10 9 8 9 9 8 7 7 7 8 9
16 23 24 15 19 19 20 16 16 12 6 6 13 16 16 15 12 10 13 15 15 13 11 14 16 18 18 19 19 17 16 15 13 12 11 10 10 11 9 9 9 9 10 11
23 17 18 18 22 22 15 17 15 9 5 6 9 18 11 5 5 4 11 15 16 16 15 14 17 19 19 19 18 17 16 14 15 15 13 13 12 12 10 9 8 10 12 14
19 21 23 18 21 23 18 11 9 8 1 5 3 5 8 9 5 7 15 17 17 18 15 15 16 18 18 18 17 16 15 15 16 14 13 11 10 9 10 10 11 12 15 18
14 13 17 20 24 26 11 12 9 3 5 6 9 6 4 3 7 11 16 18 17 16 16 16 17 19 18 16 15 14 13 14 13 11 10 10 10 10 10 11 13 16 19 21
12 7 20 18 24 20 15 14 8 4 1 7 11 9 5 4 1 12 16 18 19 18 17 17 19 18 17 14 13 12 11 12 12 10 10 10 10 10 11 14 17 20 23 25
10 15 5 17 16 3 16 15 3 5 4 6 3 6 10 3 3 10 18 22 21 20 18 18 19 18 16 14 12 12 11 11 10 8 8 9 10 12 14 17 19 21 23 23
8 5 11 13 20 9 16 14 4 5 6 5 4 6 2 5 2 7 19 24 22 21 19 18 18 17 16 14 13 11 10 10 8 6 5 6 7 10 13 16 18 20 20 20
9 4 7 12 5 11 4 6 2 3 1 3 5 4 4 2 2 7 16 24 23 22 20 19 19 18 17 15 14 12 10 8 6 4 2 3 7 10 14 16 18 19 19 18
12 4 6 6 8 4 10 10 4 2 5 5 4 3 2 3 1 6 14 25 24 22 20 18 18 18 18 16 14 12 10 7 5 2 0 4 7 11 14 16 18 18 17 17
3 7 2 13 6 12 10 6 4 2 3 3 3 4 3 2 3 5 12 24 24 23 22 19 18 19 19 17 15 13 10 7 5 2 2 6 9 13 15 17 18 17 17 17
8 3 6 3 3 9 10 11 12 6 5 1 3 3 4 3 4 5 13 22 21 22 21 19 19 21 20 18 16 14 11 8 6 3 4 7 10 14 17 18 18 16 16 16
11 7 8 5 2 3 7 11 17 10 1 10 8 3 2 2 2 4 14 21 21 21 20 19 20 21 21 19 17 15 12 9 6 4 5 8 11 15 17 18 16 15 16 17
4 5 13 11 9 12 14 19 19 17 10 9 11 6 6 5 5 8 14 19 19 19 20 19 19 20 20 19 18 16 12 9 7 5 7 10 13 17 18 17 15 16 18 20
5 4 9 3 2 15 17 19 19 20 19 13 14 18 16 9 10 12 15 17 18 18 18 20 20 19 20 20 19 15 12 10 7 6 9 12 16 18 17 15 16 18 20 23
11 3 2 3 4 10 14 19 22 23 21 23 17 17 5 5 11 14 14 14 14 15 16 18 20 20 20 20 17 14 12 9 6 8 11 15 17 17 15 16 18 20 23 26
12 5 3 3 4 5 9 18 20 18 20 21 19 19 10 8 11 15 13 11 11 10 12 15 17 19 19 18 16 14 11 8 7 10 13 16 16 15 16 18 20 23 27 30
13 4 1 3 2 5 1 3 16 21 18 20 17 4 13 13 13 12 10 11 8 7 7 10 14 18 18 18 15 14 11 7 8 12 15 16 14 15 17 20 23 27 30 32
10 3 3 4 7 6 4 5 7 11 13 15 16 9 12 18 17 8 7 8 5 3 4 8 11 15 17 16 15 12 9 8 9 13 16 15 15 17 20 23 27 30 32 32
5 7 3 1 4 4 3 3 6 5 7 11 14 15 16 18 10 6 7 5 3 2 3 6 10 13 15 15 13 10 9 10 12 14 15 15 17 19 22 26 29 31 31 30
4 5 12 9 2 7 2 6 6 6 1 11 16 19 19 9 3 14 8 4 3 3 3 5 8 10 12 12 10 9 9 10 12 14 15 16 18 22 25 29 31 30 30 29
12 9 5 5 3 9 8 5 6 4 12 17 18 17 13 14 12 9 7 5 4 3 4 5 7 9 10 11 10 9 9 11 12 14 16 18 20 24 28 29 30 30 26 26
5 3 4 7 3 2 2 1 3 12 21 14 17 15 15 13 10 8 7 4 4 6 7 8 9 10 11 11 10 10 11 11 13 15 18 20 23 26 27 28 28 27 25 25
2 2 2 3 2 1 3 7 12 16 20 18 16 15 11 10 9 7 6 6 7 9 10 11 11 12 12 12 10 9 11 12 15 17 19 22 25 28 27 26 24 26 24 23
1 8 7 2 2 6 4 9 21 20 19 17 15 12 11 9 8 7 8 9 10 11 12 13 13 12 12 11 9 9 11 13 16 18 20 23 25 25 26 27 26 25 22 20
7 6 5 3 16 3 18 20 21 22 18 15 13 11 9 7 7 8 10 11 12 12 12 12 12 12 11 9 8 11 12 14 16 19 22 24 26 25 27 26 25 21 21 21
Wind_Direction
195 200 219 200 202 214 208 204 198 204 189 231 251 267 266 282 257 230 201 179 149 128 121 115 108 105 102 99 95 91 91 91 100 108 114 123 120 108 98 80 65 45 34 26
189 214 221 214 188 224 205 205 208 215 186 249 265 273 277 274 256 235 193 174 159 142 129 120 115 112 105 95 86 82 78 82 88 98 106 114 110 103 88 75 61 43 21 6
197 206 218 207 184 202 192 196 189 205 169 244 276 274 245 185 167 172 183 172 161 151 143 127 121 112 105 97 88 83 78 80 83 83 88 90 88 88 85 65 40 25 13 4
209 211 207 192 188 198 190 201 164 156 212 231 332 274 235 226 205 187 168 166 160 151 145 135 125 116 108 97 90 82 82 82 84 88 92 93 91 77 60 44 28 12 2 355
204 213 234 187 189 201 197 163 205 205 259 290 218 257 236 179 204 184 172 167 163 157 148 141 133 124 114 106 99 92 91 94 96 94 89 81 72 61 43 24 9 359 354 350
201 301 204 186 195 192 138 128 91 94 303 246 236 232 258 183 153 167 173 172 168 162 155 148 142 133 126 121 114 108 105 103 99 90 81 70 57 42 22 9 2 359 353 347
236 258 207 176 143 129 160 149 134 191 201 238 150 211 259 179 165 172 176 179 174 169 165 158 151 145 141 138 134 128 122 114 102 89 74 57 38 22 8 1 355 345 338 333
179 208 181 174 166 173 178 178 188 172 189 172 173 231 149 90 66 189 191 180 174 172 173 166 159 156 156 155 151 145 139 128 116 97 69 45 20 7 0 353 345 337 329 327
180 282 152 145 124 139 185 188 63 115 61 235 171 225 206 170 173 195 188 179 179 176 175 168 168 168 170 170 166 163 158 148 137 121 73 22 1 356 353 347 339 329 325 325
160 179 141 103 96 346 183 155 173 205 198 223 177 230 188 125 60 169 184 184 178 177 173 173 173 177 180 182 181 179 176 172 168 167 29 352 351 350 347 341 331 325 323 324
204 231 354 145 195 177 155 152 227 240 278 229 172 143 108 326 309 220 189 186 178 177 178 177 178 186 191 191 192 194 194 194 200 216 319 341 344 346 340 333 327 325 324 324
223 200 139 171 48 198 191 176 186 203 188 244 342 138 141 301 299 214 179 179 179 178 181 182 185 193 196 199 201 205 207 211 221 249 321 336 345 344 338 328 323 325 325 323
185 176 138 163 199 40 201 188 206 212 292 202 213 180 125 130 132 150 167 172 174 178 181 183 191 197 200 204 208 212 215 221 233 264 305 335 340 337 332 326 326 326 323 327
194 201 212 196 203 173 195 195 205 207 219 207 225 224 181 171 163 157 165 173 178 182 188 192 195 200 203 207 213 216 220 225 235 267 313 328 331 330 328 329 328 326 326 330
243 235 206 250 182 187 196 193 193 206 219 227 237 231 242 204 179 177 173 177 183 190 195 201 201 202 206 210 213 217 221 225 244 289 319 326 328 328 327 326 324 323 327 330
219 214 171 160 153 206 211 212 206 216 219 232 252 249 261 182 170 169 173 177 187 195 204 208 208 207 208 211 214 218 221 231 265 308 322 325 327 328 323 320 322 328 330 330
198 196 194 178 126 162 237 213 210 217 221 220 230 244 174 175 184 180 172 170 171 180 195 204 206 206 210 212 215 218 224 244 286 314 321 325 327 320 319 324 328 330 329 328
194 169 25 72 61 218 8 13 219 218 225 226 242 231 197 185 155 139 140 144 144 164 194 211 210 211 210 212 215 220 228 259 300 319 322 322 318 320 325 327 328 327 326 326
209 107 120 169 202 306 207 190 168 187 239 216 224 187 154 141 132 114 131 139 147 176 215 215 215 213 213 213 215 220 238 270 303 320 319 316 319 323 326 326 325 326 324 323
80 113 118 124 245 241 53 160 166 163 256 178 179 160 152 154 177 150 150 140 146 176 210 209 203 203 206 210 216 227 254 285 308 318 313 316 322 325 324 323 324 324 322 320
147 174 200 222 249 290 158 146 152 182 75 148 155 151 150 160 79 144 145 147 167 179 192 193 193 200 208 213 223 243 272 302 315 310 314 320 323 322 323 324 325 323 322 320
177 174 178 171 144 255 147 120 206 108 131 139 138 138 122 130 131 138 151 164 178 208 213 210 208 214 219 224 236 258 286 302 308 313 317 319 321 323 325 324 325 324 321 320
183 236 182 206 203 38 186 334 163 152 142 139 138 141 144 143 150 158 169 192 237 246 243 236 229 227 231 240 254 273 292 304 312 314 316 320 322 323 323 323 324 324 324 324
196 197 114 141 166 241 205 131 136 137 139 141 144 144 151 155 164 177 205 238 254 254 249 240 234 234 238 247 257 281 301 307 309 312 317 321 322 323 325 324 323 323 326 325
74 157 149 133 148 120 154 149 146 143 141 142 146 154 161 170 188 216 242 258 259 252 244 238 231 229 238 247 268 291 297 303 308 313 318 321 322 323 324 324 323 323 322 323
190 159 187 206 176 146 172 162 157 151 150 153 160 162 177 197 224 248 258 261 256 248 238 228 225 227 236 251 270 282 294 303 310 316 320 321 324 323 324 323 322 319 315 314
Height
1485 1493 1480 1476 1480 1476 1476 1478 1485 1485 1488 1493 1489 1483 1483 1481 1482 1482 1482 1484 1485 1486 1487 1486 1486 1486 1487 1487 1487 1487 1487 1487 1488 1488 1488 1490 1491 1491 1491 1491 1491 1491 1490 1489
1479 1479 1475 1472 1477 1477 1474 1481 1483 1479 1489 1491 1483 1479 1475 1473 1475 1476 1477 1480 1482 1485 1488 1487 1487 1488 1489 1489 1489 1489 1489 1489 1490 1491 1491 1492 1491 1491 1491 1492 1492 1492 1491 1490
1470 1469 1469 1473 1470 1474 1474 1480 1478 1480 1488 1490 1486 1472 1467 1472 1474 1474 1475 1478 1481 1484 1487 1488 1488 1488 1490 1490 1491 1489 1489 1491 1491 1492 1494 1495 1494 1494 1494 1494 1493 1492 1491 1489
1466 1465 1466 1464 1465 1469 1473 1472 1477 1485 1491 1485 1483 1477 1463 1460 1467 1472 1473 1476 1480 1482 1485 1487 1488 1488 1490 1491 1491 1491 1492 1492 1493 1495 1495 1495 1496 1496 1495 1494 1494 1492 1490 1488
1462 1460 1462 1462 1460 1464 1467 1473 1477 1484 1488 1488 1480 1483 1455 1464 1463 1467 1470 1474 1478 1482 1484 1487 1487 1488 1490 1491 1492 1493 1493 1494 1495 1496 1496 1496 1496 1496 1496 1495 1493 1491 1489 1486
1452 1457 1461 1450 1459 1462 1469 1475 1483 1485 1489 1488 1469 1475 1453 1451 1453 1459 1468 1473 1477 1480 1484 1486 1486 1488 1490 1492 1493 1493 1494 1495 1496 1496 1496 1496 1497 1497 1497 1495 1492 1489 1485 1482
1462 1463 1452 1447 1460 1467 1464 1474 1496 1499 1498 1478 1477 1478 1449 1450 1457 1458 1463 1469 1474 1479 1483 1484 1485 1487 1490 1492 1493 1494 1494 1494 1496 1496 1496 1496 1496 1496 1494 1492 1490 1488 1485 1481
1458 1447 1445 1443 1451 1465 1463 1462 1463 1473 1473 1465 1483 1468 1448 1453 1455 1458 1460 1466 1472 1476 1481 1483 1484 1486 1489 1491 1493 1494 1494 1494 1494 1495 1495 1495 1495 1494 1493 1491 1489 1486 1482 1479
1456 1453 1443 1443 1450 1454 1472 1473 1461 1467 1473 1466 1455 1452 1448 1453 1454 1457 1459 1464 1469 1474 1479 1482 1483 1486 1488 1490 1492 1493 1493 1493 1494 1493 1494 1493 1493 1492 1491 1488 1486 1482 1479 1475
1444 1451 1446 1451 1454 1463 1457 1462 1476 1468 1472 1470 1456 1456 1444 1447 1450 1454 1456 1460 1466 1473 1477 1481 1483 1485 1487 1489 1491 1492 1492 1492 1492 1492 1492 1492 1491 1490 1488 1485 1482 1479 1476 1472
1437 1432 1454 1448 1455 1456 1459 1468 1467 1459 1462 1451 1452 1447 1442 1446 1447 1449 1453 1458 1464 1470 1475 1478 1481 1483 1485 1487 1489 1490 1490 1491 1491 1491 1491 1490 1489 1487 1485 1482 1479 1476 1472 1469
1436 1424 1450 1450 1449 1447 1448 1451 1457 1458 1468 1462 1456 1446 1445 1447 1448 1449 1451 1457 1464 1468 1473 1476 1479 1481 1483 1485 1487 1488 1488 1489 1489 1489 1489 1488 1486 1484 1481 1479 1476 1472 1469 1465
1428 1427 1440 1454 1456 1453 1452 1451 1450 1447 1454 1453 1453 1446 1446 1446 1447 1449 1451 1457 1462 1466 1470 1474 1476 1478 1480 1483 1484 1485 1486 1487 1487 1487 1486 1485 1483 1481 1478 1475 1472 1469 1466 1462
1430 1424 1419 1428 1428 1432 1443 1445 1445 1447 1450 1447 1445 1438 1444 1445 1447 1450 1452 1456 1460 1464 1467 1471 1474 1476 1477 1480 1481 1482 1483 1484 1484 1484 1483 1482 1480 1478 1474 1471 1468 1465 1462 1457
1431 1424 1424 1426 1426 1426 1431 1438 1442 1442 1441 1442 1435 1441 1435 1439 1444 1446 1450 1454 1458 1462 1465 1467 1470 1472 1474 1476 1478 1479 1481 1481 1482 1481 1480 1479 1476 1474 1471 1468 1465 1462 1458 1453
1428 1427 1427 1429 1432 1429 1431 1430 1432 1433 1434 1432 1434 1433 1435 1441 1443 1447 1449 1452 1455 1458 1461 1463 1466 1468 1470 1472 1475 1477 1478 1479 1479 1478 1477 1475 1473 1470 1468 1465 1461 1457 1453 1448
1424 1425 1426 1425 1432 1433 1435 1425 1428 1427 1427 1428 1433 1422 1436 1441 1442 1443 1447 1450 1453 1456 1458 1460 1463 1465 1467 1470 1472 1474 1475 1476 1475 1475 1473 1471 1468 1467 1464 1461 1456 1452 1448 1443
1422 1426 1430 1437 1435 1439 1411 1418 1414 1419 1418 1422 1422 1428 1431 1434 1441 1446 1448 1450 1453 1454 1456 1458 1460 1462 1464 1467 1469 1471 1472 1473 1473 1471 1470 1467 1466 1463 1460 1456 1452 1448 1443 1437
1422 1431 1438 1436 1444 1419 1416 1419 1419 1419 1413 1418 1420 1427 1433 1438 1442 1448 1449 1450 1452 1454 1456 1457 1458 1460 1462 1465 1467 1468 1470 1470 1469 1468 1466 1465 1462 1459 1456 1452 1447 1443 1437 1431
1427 1430 1438 1445 1434 1421 1410 1413 1415 1416 1413 1413 1418 1424 1431 1437 1438 1443 1449 1450 1451 1453 1454 1455 1456 1458 1461 1463 1465 1466 1467 1467 1466 1465 1464 1461 1459 1455 1452 1448 1443 1437 1431 1425
1429 1432 1434 1428 1429 1413 1410 1413 1417 1417 1412 1417 1420 1427 1433 1435 1439 1444 1447 1449 1451 1451 1452 1453 1455 1457 1459 1461 1463 1464 1465 1464 1464 1463 1461 1458 1455 1452 1448 1443 1438 1432 1426 1420
1414 1419 1422 1430 1436 1435 1413 1418 1415 1413 1418 1420 1425 1429 1433 1437 1441 1444 1446 1448 1450 1451 1451 1452 1454 1455 1458 1459 1461 1462 1462 1462 1461 1459 1457 1455 1452 1448 1443 1438 1432 1427 1420 1414
1406 1401 1403 1406 1407 1414 1414 1413 1412 1414 1415 1423 1426 1430 1434 1437 1441 1444 1446 1447 1449 1449 1450 1451 1452 1454 1456 1457 1459 1460 1460 1459 1457 1455 1453 1451 1448 1443 1438 1432 1426 1420 1414 1408
1407 1408 1404 1410 1414 1415 1414 1413 1414 1417 1419 1424 1428 1432 1435 1438 1441 1443 1445 1446 1447 1447 1448 1449 1451 1452 1454 1456 1457 1457 1456 1455 1454 1452 1450 1447 1443 1438 1433 1427 1422 1415 1409 1404
1400 1405 1407 1414 1415 1415 1415 1415 1416 1420 1423 1426 1430 1433 1436 1438 1440 1442 1443 1443 1444 1445 1446 1447 1449 1450 1452 1453 1454 1453 1453 1452 1451 1448 1446 1442 1437 1432 1427 1422 1416 1409 1405 1401
1398 1397 1397 1395 1400 1404 1410 1414 1418 1421 1424 1428 1430 1433 1435 1437 1438 1439 1440 1440 1441 1442 1443 1444 1446 1448 1449 1450 1450 1450 1450 1449 1447 1444 1441 1437 1432 1426 1421 1415 1409 1405 1399 1395